Simultaneous Nadir Overpasses (SNOs) Predictions

Prediction of SNOs between AQUA and METOP-A Satellite Orbit:

Table of predicted SNOs for the next 14.0 days since TLE Epoch: 7/3/2020
Index Date (AQUA) Time (AQUA) Lat,Lon (AQUA) SZA (AQUA ) Date (METOP-A) Time (METOP-A) Lat,Lon (METOP-A) SZA (METOP-A ) Distance(km) Time Diff (sec)
1 07/05/2020 17:53:52 76.28,-100.55 53.94 07/05/2020 17:52:39 76.22,-101.02 53.93 14.41 73
2 07/05/2020 18:43:20 -76.38, 66.79 125.95 07/05/2020 18:43:17 -76.38, 66.85 125.95 1.47 3
3 07/05/2020 19:32:48 76.42,-125.74 54.11 07/05/2020 19:33:56 76.43,-125.64 54.09 2.65 68
4 07/08/2020 13:28:07 76.33, -34.27 54.31 07/08/2020 13:26:57 76.34, -34.27 54.34 0.76 70
5 07/08/2020 14:17:34 -76.37, 133.23 125.64 07/08/2020 14:17:38 -76.36, 133.14 125.65 2.97 4
6 07/08/2020 15:07:03 76.47, -59.45 54.48 07/08/2020 15:08:15 76.50, -59.03 54.47 11.52 72
7 07/11/2020 09:02:22 76.33, 32.17 54.68 07/11/2020 09:01:18 76.36, 32.17 54.72 3.27 64
8 07/11/2020 09:51:49 -76.37,-160.33 125.27 07/11/2020 09:51:59 -76.39,-160.42 125.26 2.54 10
9 07/11/2020 10:41:23 76.71, 6.16 55.14 07/11/2020 10:42:31 76.75, 8.25 55.03 53.41 68
10 07/14/2020 04:36:37 76.34, 98.59 55.10 07/14/2020 04:35:40 76.34, 98.44 55.12 3.91 57
11 07/14/2020 05:26:05 -76.43, -94.06 124.80 07/14/2020 05:26:20 -76.41, -93.97 124.82 2.97 15
12 07/14/2020 06:15:44 77.00, 71.56 55.90 07/14/2020 06:16:47 77.00, 75.55 55.64 99.69 63
13 07/17/2020 00:10:52 76.39, 164.85 55.62 07/17/2020 00:10:00 76.36, 164.87 55.60 3.67 52
14 07/17/2020 01:00:19 -76.43, -27.65 124.33 07/17/2020 01:00:40 -76.43, -27.54 124.34 2.96 21
